• In Hungary
  • List of Countries
  • For 7 days
  • Water Temperature
  • Satellite Maps
  • Weather Map
  • News
  • Weather Widgets
  • user-avatar
    Login

    Hourly Weather Ischgl

    Today, 22 August, Wednesday

    Time Temperature Precipitation Wind Pressure Humidity
    00:00 +8°C° 0.2 mm 1 mps 579 mmHg 90%
    01:00 +8°C° 0.2 mm 1 mps 579 mmHg 90%
    02:00 +8°C° 0 mm 1 mps 579 mmHg 90%
    03:00 +8°C° 0 mm 1 mps 579 mmHg 89%
    04:00 +7°C° 0 mm 2 mps 578 mmHg 89%
    05:00 +8°C° 0 mm 1 mps 579 mmHg 87%
    06:00 +9°C° 0 mm 1 mps 579 mmHg 85%
    07:00 +10°C° 0 mm 1 mps 580 mmHg 83%
    08:00 +12°C° 0.1 mm 1 mps 581 mmHg 74%
    09:00 +14°C° 0.1 mm 1 mps 582 mmHg 65%
    10:00 +16°C° 0.1 mm 1 mps 583 mmHg 56%
    11:00 +18°C° 1 mm 1 mps 583 mmHg 58%
    12:00 +18°C° 1 mm 1 mps 582 mmHg 59%
    13:00 +17°C° 1 mm 2 mps 582 mmHg 60%
    14:00 +16°C° 2 mm 1 mps 582 mmHg 64%
    15:00 +16°C° 2 mm 1 mps 582 mmHg 67%
    16:00 +15°C° 2 mm 1 mps 581 mmHg 70%
    17:00 +14°C° 1.3 mm 1 mps 581 mmHg 76%
    18:00 +13°C° 1.3 mm 1 mps 580 mmHg 82%
    19:00 +11°C° 1.3 mm 1 mps 579 mmHg 87%
    20:00 +11°C° 0.6 mm 1 mps 579 mmHg 88%
    21:00 +10°C° 0.6 mm 1 mps 579 mmHg 88%
    22:00 +10°C° 0.6 mm 1 mps 579 mmHg 89%
    23:00 +10°C° 0.2 mm 1 mps 579 mmHg 89%

    Tomorrow, 23 August, Thursday

    Time Temperature Precipitation Wind Pressure Humidity
    00:00 +9°C° 0.2 mm 1 mps 579 mmHg 88%
    01:00 +9°C° 0.2 mm 1 mps 579 mmHg 88%
    02:00 +9°C° 0.2 mm 1 mps 578 mmHg 88%
    03:00 +9°C° 0.2 mm 1 mps 578 mmHg 88%
    04:00 +9°C° 0.2 mm 1 mps 578 mmHg 88%
    05:00 +9°C° 0.2 mm 1 mps 578 mmHg 87%
    06:00 +10°C° 0.2 mm 1 mps 578 mmHg 86%
    07:00 +10°C° 0.2 mm 1 mps 579 mmHg 85%
    08:00 +12°C° 0.3 mm 1 mps 579 mmHg 78%
    09:00 +13°C° 0.3 mm 1 mps 580 mmHg 71%
    10:00 +15°C° 0.3 mm 1 mps 581 mmHg 64%
    11:00 +15°C° 0.8 mm 1 mps 580 mmHg 63%
    12:00 +15°C° 0.8 mm 1 mps 580 mmHg 63%
    13:00 +16°C° 0.8 mm 1 mps 580 mmHg 62%
    14:00 +15°C° 1.9 mm 1 mps 580 mmHg 69%
    15:00 +14°C° 1.9 mm 1 mps 579 mmHg 75%
    16:00 +13°C° 1.9 mm 1 mps 578 mmHg 81%
    17:00 +12°C° 1.8 mm 1 mps 578 mmHg 85%
    18:00 +11°C° 1.8 mm 1 mps 577 mmHg 88%
    19:00 +10°C° 1.8 mm 1 mps 577 mmHg 92%
    20:00 +9°C° 0.9 mm 1 mps 577 mmHg 92%
    21:00 +9°C° 0.9 mm 1 mps 577 mmHg 92%
    22:00 +8°C° 0.9 mm 1 mps 577 mmHg 93%
    23:00 +8°C° 0.2 mm 1 mps 576 mmHg 92%

    Day after tomorrow, 24 August, Friday

    Time Temperature Precipitation Wind Pressure Humidity
    00:00 +8°C° 0.2 mm 1 mps 576 mmHg 92%
    01:00 +8°C° 0.2 mm 1 mps 575 mmHg 92%
    02:00 +8°C° 0.2 mm 1 mps 575 mmHg 91%
    03:00 +8°C° 0.2 mm 1 mps 575 mmHg 91%
    04:00 +7°C° 0.2 mm 1 mps 575 mmHg 91%
    05:00 +8°C° 0.3 mm 1 mps 575 mmHg 90%
    06:00 +8°C° 0.3 mm 1 mps 575 mmHg 89%
    07:00 +9°C° 0.3 mm 1 mps 575 mmHg 88%
    08:00 +9°C° 0.6 mm 1 mps 576 mmHg 87%
    09:00 +10°C° 0.6 mm 1 mps 576 mmHg 85%
    10:00 +11°C° 0.6 mm 1 mps 576 mmHg 83%
    11:00 +11°C° 0.9 mm 1 mps 576 mmHg 83%
    12:00 +11°C° 0.9 mm 1 mps 576 mmHg 84%
    13:00 +11°C° 0.9 mm 1 mps 576 mmHg 84%
    14:00 +10°C° 1.8 mm 1 mps 575 mmHg 86%
    15:00 +9°C° 1.8 mm 2 mps 575 mmHg 89%
    16:00 +8°C° 1.8 mm 2 mps 575 mmHg 91%
    17:00 +8°C° 1.3 mm 2 mps 574 mmHg 93%
    18:00 +7°C° 1.3 mm 2 mps 574 mmHg 94%
    19:00 +6°C° 1.3 mm 2 mps 574 mmHg 95%
    20:00 +6°C° 1.1 mm 2 mps 574 mmHg 96%
    21:00 +6°C° 1.1 mm 2 mps 574 mmHg 96%
    22:00 +5°C° 1.1 mm 2 mps 574 mmHg 97%
    23:00 +5°C° 0.7 mm 2 mps 574 mmHg 97%

    25 August, Saturday

    Time Temperature Precipitation Wind Pressure Humidity
    00:00 +5°C° 0.7 mm 2 mps 574 mmHg 97%
    01:00 +4°C° 0.7 mm 2 mps 573 mmHg 97%
    02:00 +4°C° 0.5 mm 2 mps 573 mmHg 97%
    03:00 +4°C° 0.5 mm 2 mps 573 mmHg 97%
    04:00 +3°C° 0.5 mm 2 mps 573 mmHg 97%
    05:00 +3°C° 0.7 mm 2 mps 573 mmHg 97%
    06:00 +3°C° 0.7 mm 2 mps 573 mmHg 97%
    07:00 +3°C° 0.7 mm 2 mps 572 mmHg 97%
    08:00 +2°C° 0.8 mm 2 mps 572 mmHg 96%
    09:00 +2°C° 0.8 mm 2 mps 572 mmHg 96%
    10:00 +1°C° 0.8 mm 3 mps 572 mmHg 95%
    11:00 +1°C° 0.5 mm 3 mps 572 mmHg 92%
    12:00 +2°C° 0.5 mm 3 mps 572 mmHg 89%
    13:00 +2°C° 0.5 mm 3 mps 573 mmHg 87%
    14:00 +2°C° 0.2 mm 3 mps 573 mmHg 85%
    15:00 +2°C° 0.2 mm 3 mps 573 mmHg 83%
    16:00 +2°C° 0.2 mm 3 mps 573 mmHg 81%
    17:00 +1°C° 0.1 mm 3 mps 572 mmHg 84%
    18:00 +2°C° 0.1 mm 2 mps 572 mmHg 86%
    19:00 +1°C° 0.1 mm 2 mps 572 mmHg 89%
    20:00 -1°C° 0 mm 2 mps 572 mmHg 90%
    21:00 -1°C° 0 mm 2 mps 572 mmHg 91%
    22:00 -2°C° 0 mm 2 mps 571 mmHg 92%
    23:00 -2°C° 0 mm 2 mps 571 mmHg 92%

    26 August, Sunday

    Time Temperature Precipitation Wind Pressure Humidity
    00:00 -2°C° 0 mm 2 mps 571 mmHg 92%
    01:00 -3°C° 0 mm 2 mps 571 mmHg 92%
    02:00 -3°C° 0 mm 2 mps 571 mmHg 93%
    03:00 -4°C° 0 mm 2 mps 571 mmHg 93%
    04:00 -4°C° 0 mm 2 mps 570 mmHg 94%
    05:00 -4°C° 0 mm 2 mps 571 mmHg 91%
    06:00 -3°C° 0 mm 2 mps 571 mmHg 87%
    07:00 -2°C° 0 mm 2 mps 572 mmHg 84%
    08:00 -1°C° 0 mm 2 mps 573 mmHg 77%
    09:00 +2°C° 0 mm 2 mps 573 mmHg 69%
    10:00 +4°C° 0 mm 2 mps 574 mmHg 62%
    11:00 +5°C° 0 mm 2 mps 575 mmHg 59%
    12:00 +6°C° 0 mm 2 mps 575 mmHg 57%
    13:00 +6°C° 0 mm 2 mps 575 mmHg 54%
    14:00 +7°C° 0 mm 2 mps 575 mmHg 54%
    15:00 +7°C° 0 mm 2 mps 575 mmHg 55%
    16:00 +7°C° 0 mm 2 mps 575 mmHg 55%
    17:00 +5°C° 0 mm 2 mps 575 mmHg 64%
    18:00 +3°C° 0 mm 2 mps 574 mmHg 72%
    19:00 +2°C° 0 mm 2 mps 574 mmHg 81%
    20:00 +2°C° 0 mm 1 mps 574 mmHg 84%
    21:00 +1°C° 0 mm 1 mps 574 mmHg 88%
    22:00 0°C° 0 mm 1 mps 574 mmHg 91%
    23:00 -1°C° 0 mm 1 mps 574 mmHg 90%

    27 August, Monday

    Time Temperature Precipitation Wind Pressure Humidity
    00:00 -1°C° 0 mm 1 mps 574 mmHg 90%
    01:00 -1°C° 0 mm 1 mps 574 mmHg 89%
    02:00 -1°C° 0 mm 1 mps 574 mmHg 86%
    03:00 -1°C° 0 mm 1 mps 574 mmHg 83%
    04:00 -1°C° 0 mm 1 mps 574 mmHg 80%
    05:00 0°C° 0 mm 1 mps 575 mmHg 72%
    06:00 +1°C° 0 mm 1 mps 575 mmHg 63%
    07:00 +3°C° 0 mm 1 mps 576 mmHg 54%
    08:00 +5°C° 0 mm 1 mps 577 mmHg 48%
    09:00 +8°C° 0 mm 1 mps 578 mmHg 41%
    10:00 +10°C° 0 mm 1 mps 580 mmHg 34%
    11:00 +11°C° 0 mm 1 mps 580 mmHg 35%
    12:00 +12°C° 0 mm 1 mps 580 mmHg 35%
    13:00 +13°C° 0 mm 2 mps 581 mmHg 36%
    14:00 +13°C° 0 mm 2 mps 580 mmHg 38%
    15:00 +13°C° 0 mm 2 mps 580 mmHg 39%
    16:00 +13°C° 0 mm 2 mps 580 mmHg 41%
    17:00 +9°C° 0 mm 2 mps 579 mmHg 53%
    18:00 +8°C° 0 mm 1 mps 578 mmHg 65%
    19:00 +5°C° 0 mm 1 mps 577 mmHg 76%
    20:00 +5°C° 0 mm 1 mps 577 mmHg 78%
    21:00 +4°C° 0 mm 1 mps 577 mmHg 80%
    22:00 +3°C° 0 mm 1 mps 577 mmHg 81%
    23:00 +3°C° 0 mm 1 mps 576 mmHg 81%
    Show more